Location: Lango�lan
(48.1202°N, 3.2340°W)
Time: 22:38:29
(UTC+00:00)

RESURS DK-1 - Pass Details

Date: 23 October 2019
Orbit: 558 x 560 km, 69.9° (Epoch: 14 November)

Event Time Altitude Azimuth Distance (km) Brightness Sun altitude
Exits shadow 03:43:36 24° 105° (ESE) 1,166 4.4 -30.4°
Drops below altitude 10° 03:46:53 10° 53° (NE) 1,852 5.8 -29.9°
Sets 03:49:22 0° 40° (NE) 2,752 6.7 -29.5°
